TimeEDT,TemperatureF,Dew PointF,Humidity,Sea Level PressureIn,VisibilityMPH,Wind Direction,Wind SpeedMPH,Gust SpeedMPH,PrecipitationIn,Events,Conditions,WindDirDegrees,DateUTC
12:53 AM,48.0,36.0,63,30.30,10.0,Calm,Calm,-,N/A,,Scattered Clouds,0,2012-10-14 04:53:00
1:53 AM,48.0,37.9,68,30.27,10.0,Calm,Calm,-,N/A,,Partly Cloudy,0,2012-10-14 05:53:00
2:53 AM,48.0,41.0,77,30.22,10.0,South,3.5,-,0.00,,Scattered Clouds,180,2012-10-14 06:53:00
3:53 AM,48.9,42.1,77,30.19,10.0,SSE,3.5,-,N/A,,Clear,160,2012-10-14 07:53:00
4:53 AM,53.1,44.1,71,30.18,10.0,South,8.1,-,N/A,,Overcast,190,2012-10-14 08:53:00
5:53 AM,55.9,44.1,64,30.19,10.0,SW,8.1,-,N/A,,Overcast,220,2012-10-14 09:53:00
6:53 AM,54.0,46.0,75,30.17,10.0,South,9.2,-,0.01,Rain,Light Rain,190,2012-10-14 10:53:00
7:53 AM,55.0,46.0,72,30.17,10.0,South,9.2,-,0.00,,Overcast,190,2012-10-14 11:53:00
8:53 AM,55.9,46.9,72,30.16,10.0,SSW,9.2,16.1,N/A,,Overcast,200,2012-10-14 12:53:00
9:53 AM,57.0,48.0,72,30.16,10.0,SSW,9.2,-,0.00,Rain,Light Rain,210,2012-10-14 13:53:00
10:53 AM,59.0,48.0,67,30.14,10.0,South,10.4,18.4,0.00,,Overcast,190,2012-10-14 14:53:00
11:53 AM,60.1,48.0,64,30.13,10.0,South,6.9,-,N/A,,Overcast,190,2012-10-14 15:53:00
12:53 PM,62.1,48.9,62,30.10,10.0,South,9.2,19.6,N/A,,Overcast,190,2012-10-14 16:53:00
1:53 PM,64.9,50.0,58,30.07,10.0,SSW,3.5,16.1,N/A,,Overcast,210,2012-10-14 17:53:00
2:53 PM,66.0,48.9,54,30.05,10.0,South,15.0,23.0,N/A,,Overcast,180,2012-10-14 18:53:00
4:53 PM,66.9,50.0,54,30.02,10.0,SSW,8.1,-,N/A,,Clear,200,2012-10-14 20:53:00
5:53 PM,64.9,52.0,63,30.01,10.0,South,8.1,-,N/A,,Clear,180,2012-10-14 21:53:00
6:53 PM,63.0,53.1,70,30.00,10.0,South,6.9,-,N/A,,Clear,180,2012-10-14 22:53:00
7:53 PM,62.1,53.1,72,30.00,10.0,South,9.2,-,N/A,,Clear,180,2012-10-14 23:53:00
8:53 PM,61.0,54.0,78,29.99,10.0,South,8.1,-,N/A,,Clear,170,2012-10-15 00:53:00
9:53 PM,61.0,54.0,78,29.99,10.0,South,6.9,-,N/A,,Clear,170,2012-10-15 01:53:00
10:53 PM,62.1,55.0,78,29.97,10.0,South,8.1,-,N/A,,Clear,170,2012-10-15 02:53:00
11:53 PM,62.1,55.9,80,29.96,10.0,South,10.4,-,N/A,,Clear,180,2012-10-15 03:53:00